User: anonymous   Login
Location: Caribou
(46.8667°N, 68.0167°W)
Time: 13:00:31
(UTC-04:00)
Language:

SL-08 RB Rocket - Orbit

View from above orbital plane
View from above orbital plane
View from above satellite
View from above satellite

Ground track
Ground track

The orbit data is extracted from the following two-line orbital elements,

1 26387U 00033D   18110.77325958  .00000100  00000-0  25424-4 0  9991
2 26387  97.9268 171.4702 0027888  79.4598  31.5752 14.68378323953012
Epoch (UTC): 20 April 2018 18:33:29
Eccentricity: 0.0027888
inclination: 97.9268°
perigee height: 646 km
apogee height: 686 km
right ascension of ascending node: 171.4702°
argument of perigee: 79.4598°
revolutions per day: 14.68378323
mean anomaly at epoch: 31.5752°
orbit number at epoch: 95301

The dashed part of the orbit path shows where the satellite is in the earth's shadow,  

DLR